Regional Weather Roundup
Issued by NWS

Home | Current Version | Previous Version | Text Only | Print | Product List | Glossary On
Versions: 1 2 3 4 5 6 7 8 9 10 11 12 13 14 15 16 17 18 19 20 21 22 23 24 25 26 27 28 29 30 31 32 33 34 35 36 37 38 39 40 41 42 43 44 45 46 47 48 49 50
000
ASUS43 KDTX 312010
RWRMI
MICHIGAN HOURLY REGIONAL WEATHER ROUNDUP
NATIONAL WEATHER SERVICE DETROIT/PONTIAC MI
400 PM EDT FRI OCT 31 2014

NOTE: "FAIR" INDICATES FEW OR NO CLOUDS BELOW 12,000 FEET WITH NO
SIGNIFICANT WEATHER AND/OR OBSTRUCTION TO VISIBILITY.

MIZ047>049-052>055-059>063-066>070-074>076-081>083-312100-
SOUTHEAST LOWER MICHIGAN

CITY           SKY/WX    TMP DP  RH WIND       PRES   REMARKS
ADRIAN         LGT RAIN  40  36  86 N21G26    29.91R
ALMA           CLOUDY    37  31  78 N20G31    30.08R
ANN ARBOR      CLOUDY    41  35  79 N20G28    29.90R
BAD AXE        FLURRIES  36  36  99 N23G35    30.00R
DETROIT CITY   LGT RAIN  44  38  79 N15G23    29.90R
DETROIT        LGT RAIN  42  38  85 NW14      29.89R
FLINT          LGT RAIN  39  34  82 N23G33    29.98R
GROSSE ILE     DRIZZLE   43  39  87 N12G20    29.86S
HILLSDALE      LGT RAIN  38  36  92 N17G30    29.93R
HOWELL         LGT RAIN  35  34  94 N15G23    29.95R

CITY           SKY/WX    TMP DP  RH WIND       PRES   REMARKS
JACKSON        MIX PCPN  36  34  92 N20G31    29.96R
LAMBERTVILLE   LGT RAIN  43  37  81 N8        29.89R
LANSING        CLOUDY    36  31  82 N23G32    30.03R
LAPEER         NOT AVBL
MASON          LGT RAIN  36  33  90 N14G30    29.99R
MONROE         CLOUDY    43  39  87 N9        29.87R
MT. CLEMENS    LGT RAIN  40  40 100 N17G30    29.87R FOG
PONTIAC        LGT RAIN  37  34  89 N20G28    29.91R
PORT HOPE        N/A     40  35  83 N35G46    29.99R
PORT HURON     LGT RAIN  41  39  93 N7        29.90R
TRI CITIES     CLOUDY    37  30  75 N24G36    30.06R
YPSILANTI      CLOUDY    45  37  73 N16       29.90R
$$
MIZ043>046-050>051-056>058-064>065-071>073-077>080-312100-
SOUTHWEST LOWER MICHIGAN

CITY           SKY/WX    TMP DP  RH WIND       PRES   REMARKS
BATTLE CREEK   FLURRIES  36  31  82 N25G32    30.02R
BENTON HARBOR  LGT SNOW  34  32  92 N12G23    30.09R FOG
BIG RAPIDS     CLOUDY    33  31  89 N17G24    30.14R
COLDWATER      CLOUDY    38  35  89 N16G28    29.97R
HOLLAND        CLOUDY    38  27  64 N16G31    30.13R
GRAND RAPIDS   CLOUDY    38  30  73 N17G35    30.08R
KALAMAZOO      LGT RAIN  37  33  85 N16G26    30.03R
MARSHALL       LGT RAIN  35  32  90 N12G22    29.99R
MUSKEGON       FLURRIES  37  27  67 N16G26    30.17R
$$
MIZ016>042-312100-
NORTHERN LOWER MICHIGAN

CITY           SKY/WX    TMP DP  RH WIND       PRES   REMARKS
ALPENA         CLOUDY    34  27  75 N20G33    30.15R
BEAVER ISLAND  CLOUDY    36  21  55 N16       30.28R
BELLAIRE       CLOUDY    34  24  65 N10G24    30.24R
CADILLAC       CLOUDY    30  25  82 N10G22    30.15R
CHARLEVOIX     CLOUDY    35  24  64 N23       30.27R
FRANKFORT      CLOUDY    36  26  67 N13G21    30.24R
GAYLORD        CLOUDY    30  24  78 N10G20    30.17R
GRAYLING       CLOUDY    33  25  73 N18G26    30.17R
HARBOR SPRINGS CLOUDY    32  24  71 N10G18    30.25R
HOUGHTON LAKE  CLOUDY    32  25  75 N20G30    30.14R
OSCODA         CLOUDY    34  32  92 N20G28    30.08R
PELLSTON       CLOUDY    33  24  69 N16G26    30.25R
TRAVERSE CITY  CLOUDY    36  25  64 N21G36    30.22R
$$
MIZ007>008-015-312100-
EASTERN UPPER MICHIGAN

CITY           SKY/WX    TMP DP  RH WIND       PRES   REMARKS
KINROSS        CLOUDY    34  23  64 N18G24    30.25R
MACKINAC ISLAN PTSUNNY   34  22  61 N16G26    30.25R
NEWBERRY       CLOUDY    32  20  62 N16G29    30.30R
S. S. MARIE    CLOUDY    33  18  53 N15G26    30.26R
$$
MIZ004>006-011>014-085-312100-
CENTRAL UPPER MICHIGAN

CITY           SKY/WX    TMP DP  RH WIND       PRES   REMARKS
MANISTIQUE     CLOUDY    35  25  65 N16G25    30.31S
ESCANABA       PTSUNNY   36  19  51 N15G28    30.35S
MENOMINEE      CLOUDY    36  18  48 NE22G30   30.34S
SAWYER-GWINN   LGT SNOW  30  27  86 N21G26    30.37R
$$
MIZ001>003-009>011-084-312100-
WESTERN UPPER MICHIGAN

CITY           SKY/WX    TMP DP  RH WIND       PRES   REMARKS
IRON MOUNTAIN  CLOUDY    36  22  56 NW18G25   30.37R
HOUGHTON       PTSUNNY   32  23  69 N12G20    30.43S
COPPER HARBOR    N/A     35  27  72 N20       30.44S
IRONWOOD       CLOUDY    32  21  64 N9        30.45S
$$

ABBREVIATIONS USED IN REMARKS
   TC - TEMPERATURE IN CELSIUS
  WCI - WIND CHILL INDEX
   HX - HEAT INDEX
  VSB - VISIBILITY




USA.gov is the U.S. government's official web portal to all federal, state and local government web resources and services.